CZ-2D R/B

Satellite information

Favourite Embed

Satellite Type and Status

ROCKET BODYIN ORBIT

Key statistics

Satellite CZ-2D R/B at a glance.

Uptime

982

Days in orbit

Revolutions

≈ 14.3

Per day

Orbit

LEO

Low Earth Orbit

Inclination

59.9

Latest

Satellite identification and parameters

Extended collection of information and parameters for CZ-2D R/B.

Object identification

Identified? True

Debris? False

Object name: CZ-2D R/B

International designator: 2022-142B

Object number (NORAD): 54215

Object ID (CCSDS): 54215

Country: PEOPLES REPUBLIC OF CHINA (PRC)

Current information (Y/N): Y

RCS size: LARGE

Orbital parameters

Period: 100.403 minutes

Inclination: 59.9024 deg

SMA: 7155.797 km

Apoapsis: 796.787 km

Periapsis: 758.538 km

RAAN: 326.125 deg

Eccentricy: 0.0026726

Argument of periapsis: 352.4436 deg

Mean anomaly: 7.6194 deg

Mean motion: 14.34219856 rev/day

Mean motion (dot): -0.00000031 rev/day2

B* drag term: 0.000038201 1/REarth

Two-line elements (TLE)

Creation date: July 6, 2025, 10:36 p.m.

Reference frame: TEME

Reference center: EARTH

Epoch: July 6, 2025, 8:19 p.m. UTC

TLE line 0: 0 CZ-2D R/B

TLE line 1: 1 54215U 22142B 25187.84680626 -.00000031 00000-0 38201-4 0 9994

TLE line 2: 2 54215 59.9024 326.1250 0026726 352.4436 7.6194 14.34219856140800

Live tracking on map

Real-time ground track for satellite CZ-2D R/B.

In-orbit conjunctions

A list of the most updated potential collisions computed for object CZ-2D R/B.

Target Orbit TCA Probability of collision Miss distance Type
IRIDIUM 33 DEB LEO 2025-05-31 11:47:37 0.0001332493 58.0 (m) DEBRIS
NOAA 16 DEB SSO 2025-05-29 04:17:57 0.000100621 263.0 (m) DEBRIS
DMSP 5D-2 F13 DEB SSO 2025-03-27 03:56:32 0.0001442656 333.0 (m) DEBRIS
DELTA 1 DEB SSO 2024-12-08 13:54:20 0.0002472002 329.0 (m) DEBRIS
COSMOS 2251 DEB LEO 2024-10-20 21:31:25 0.0001616818 445.0 (m) DEBRIS

Associated space launch

Chinese classified satellite of unknown purposes.

CZ-2D R/B was lifted into orbit during the mission ‘Long March 2D | Shiyan 20C’, on board a Long March 4C space rocket.

The launch took place on Oct. 29, 2022, 1:01 a.m. from Launch Area 4 (SLS-2 / 603).

For more information about the launch, click the button.

Launch to space Long March 2D | Shiyan 20C
Long March 2D | Shiyan 20C

Agency: N/A

Status: Launch Successful

Launch date: Oct. 29, 2022, 1:01 a.m. UTC

Rocket: Long March 4C

Launch pad: Launch Area 4 (SLS-2 / 603)

Location: Jiuquan Satellite Launch Center, People's Republic of China

...

Latest news about this satellite

There are no fresh news available about this satellite. Check back as we update our databases every day.


Newsletter sign-up

Weekly statistics, charts and insights to help you stay on top of the space industry.